Reidsville, NC

1:12 AM EDT on June 26, 2017 (GMT -0400)
Reidsville

Weather History for KSIF - February, 2013

Change the Weather History Date:

Tuesday, February 26, 2013

  Actual Average (KGSO) Record (KGSO)
Temperature  
Mean Temperature 34 °F -  
Max Temperature 38 °F 51 °F 81 °F (1977)
Min Temperature 30 °F 30 °F 10 °F (1967)
Degree Days  
Heating Degree Days 31    
Moisture  
Dew Point 33 °F    
Average Humidity 91    
Maximum Humidity 100    
Minimum Humidity 66    
Precipitation  
Precipitation 0.63 in - - ()
Sea Level Pressure  
Sea Level Pressure 29.85 in    
Wind  
Wind Speed 3 mph (NNE)    
Max Wind Speed 10 mph    
Max Gust Speed 17 mph    
Visibility 6 miles    
Events Rain , Snow    
Averages and records for this station are not official NWS values.
T = Trace of Precipitation, MM = Missing Value Source: NWS Daily Summary

Daily Weather History Graph

Daily Weather History Graph

Search for Another Location

Airport or City:

Trip Planner

Search our weather history database for the weather conditions in past years. The results will help you decide how hot, cold, wet, or windy it might be!

Date:

Astronomy

Feb. 26, 2013 Rise Set
Actual Time 6:53 AM EST 6:11 PM EST
Civil Twilight 6:27 AM EST 6:37 PM EST
Nautical Twilight 5:57 AM EST 7:07 PM EST
Astronomical Twilight 5:27 AM EST 7:37 PM EST
Moon 7:22 PM EST 6:58 AM EST
Length of Visible Light 12h 09m
Length of Day
11h 17m
Full, 99% of the Moon is Illuminated
Feb 26
Full
Mar 4
Last Quarter
Mar 11
New
Mar 19
First Quarter
Mar 27
Full

Hourly Weather History & Observations

Time (EST) Temp. Windchill Dew Point Humidity Pressure Visibility Wind Dir Wind Speed Gust Speed Precip Events Conditions
12:15 AM 30.2 °F - 24.3 °F 79% 30.15 in 10.0 mi Calm Calm - N/A   Clear
12:35 AM 30.6 °F - 24.1 °F 77% 30.15 in 10.0 mi Calm Calm - N/A   Clear
12:55 AM 30.2 °F - 25.5 °F 83% 30.15 in 10.0 mi Calm Calm - N/A   Scattered Clouds
1:15 AM 32.0 °F - 25.7 °F 78% 30.15 in 10.0 mi Calm Calm - N/A   Overcast
1:35 AM 33.3 °F - 24.4 °F 70% 30.14 in 10.0 mi Calm Calm - N/A   Overcast
1:55 AM 33.8 °F 30.8 °F 24.4 °F 69% 30.12 in 10.0 mi NNE 3.5 mph - N/A   Overcast
2:15 AM 34.0 °F 31.0 °F 24.4 °F 68% 30.11 in 10.0 mi NE 3.5 mph - N/A   Overcast
2:35 AM 34.5 °F 31.6 °F 24.3 °F 66% 30.11 in 10.0 mi NE 3.5 mph - N/A   Overcast
2:55 AM 34.7 °F - 24.4 °F 66% 30.10 in 10.0 mi Calm Calm - N/A   Overcast
3:15 AM 34.7 °F 31.8 °F 24.6 °F 67% 30.10 in 10.0 mi NE 3.5 mph - N/A   Overcast
3:35 AM 34.7 °F 31.8 °F 24.6 °F 67% 30.08 in 10.0 mi NE 3.5 mph - N/A   Overcast
4:15 AM 34.9 °F 32.0 °F 25.2 °F 68% 30.09 in 10.0 mi NE 3.5 mph - N/A   Overcast
4:35 AM 34.7 °F 30.6 °F 25.0 °F 68% 30.07 in 10.0 mi NE 4.6 mph - N/A   Overcast
4:55 AM 34.3 °F 30.2 °F 26.1 °F 72% 30.08 in 10.0 mi NE 4.6 mph - N/A Rain Light Rain
5:15 AM 34.7 °F 31.8 °F 25.9 °F 70% 30.09 in 10.0 mi NNE 3.5 mph - N/A   Overcast
5:35 AM 34.0 °F 29.8 °F 26.8 °F 75% 30.06 in 10.0 mi NNE 4.6 mph - N/A Rain Light Rain
5:55 AM 33.4 °F 29.1 °F 27.3 °F 78% 30.07 in 7.0 mi NE 4.6 mph - N/A Rain Rain
6:15 AM 33.3 °F 30.2 °F 27.5 °F 79% 30.06 in 7.0 mi North 3.5 mph - N/A   Overcast
6:35 AM 32.5 °F 26.2 °F 28.8 °F 86% 30.04 in 7.0 mi NNE 6.9 mph - N/A   Overcast
6:55 AM 32.4 °F 26.9 °F 29.3 °F 88% 30.04 in 7.0 mi NNE 5.8 mph - N/A   Overcast
7:15 AM 32.4 °F 26.9 °F 30.0 °F 91% 30.03 in 4.0 mi NNE 5.8 mph - N/A   Overcast
7:35 AM 32.4 °F 25.3 °F 30.2 °F 92% 30.02 in 5.0 mi NNE 8.1 mph - 0.01 in   Overcast
7:55 AM 32.4 °F 25.3 °F 30.6 °F 93% 30.02 in 4.0 mi NNE 8.1 mph - 0.02 in Snow Light Snow
8:15 AM 32.4 °F 27.9 °F 30.9 °F 94% 30.02 in 2.5 mi NE 4.6 mph - 0.01 in Snow Light Snow
8:35 AM 32.4 °F 27.9 °F 31.1 °F 95% 30.01 in 2.5 mi NE 4.6 mph - 0.03 in Snow Light Snow
8:55 AM 32.4 °F 26.9 °F 31.5 °F 96% 30.00 in 1.5 mi NNE 5.8 mph - 0.07 in Snow Light Snow
9:15 AM 32.5 °F 27.1 °F 31.6 °F 96% 29.99 in 1.8 mi NE 5.8 mph - 0.04 in Snow Light Snow
9:35 AM 32.5 °F 26.2 °F 31.8 °F 97% 29.96 in 1.8 mi NE 6.9 mph - 0.08 in Snow Light Snow
9:55 AM 32.5 °F 28.1 °F 32.0 °F 98% 29.96 in 2.0 mi ENE 4.6 mph - 0.11 in Snow Light Snow
10:15 AM 32.9 °F 27.5 °F 32.0 °F 96% 29.93 in 1.8 mi NNE 5.8 mph - 0.01 in Snow Light Snow
10:35 AM 32.9 °F 28.5 °F 32.2 °F 97% 29.92 in 2.0 mi NE 4.6 mph - 0.02 in   Overcast
10:55 AM 33.1 °F 27.7 °F 32.4 °F 97% 29.89 in 1.5 mi NE 5.8 mph - 0.06 in Snow Light Snow
11:15 AM 33.4 °F 28.1 °F 32.9 °F 98% 29.87 in 1.8 mi NE 5.8 mph - 0.01 in Rain Rain
11:35 AM 34.2 °F 28.2 °F 33.8 °F 99% 29.86 in 1.5 mi NE 6.9 mph - 0.04 in Rain Rain
11:55 AM 34.5 °F 29.4 °F 33.8 °F 97% 29.85 in 1.2 mi NE 5.8 mph - 0.09 in   Overcast
12:15 PM 34.5 °F 29.4 °F 34.0 °F 98% 29.83 in 1.8 mi NE 5.8 mph - 0.01 in Rain Rain
12:35 PM 34.9 °F 29.0 °F 34.3 °F 98% 29.81 in 1.0 mi NNE 6.9 mph - 0.06 in Rain Light Rain
12:55 PM 35.2 °F 31.2 °F 34.9 °F 99% 29.79 in 1.2 mi NE 4.6 mph - 0.09 in Rain Rain
1:15 PM 35.6 °F 32.8 °F 35.1 °F 98% 29.78 in 1.8 mi NNE 3.5 mph - 0.03 in Rain Rain
1:35 PM 35.8 °F 30.1 °F 35.6 °F 99% 29.75 in 1.8 mi NE 6.9 mph - 0.05 in Rain Rain
1:55 PM 36.0 °F 32.1 °F 35.6 °F 99% 29.74 in 2.5 mi NE 4.6 mph - 0.05 in Rain Rain
2:15 PM 36.5 °F 29.2 °F 36.0 °F 98% 29.70 in 2.5 mi NE 10.4 mph 17.3 mph N/A Rain Rain
2:35 PM 37.0 °F 32.4 °F 36.7 °F 99% 29.69 in 2.5 mi NNE 5.8 mph - 0.03 in Rain Light Rain
2:55 PM 37.6 °F 33.1 °F 37.4 °F 99% 29.66 in 3.0 mi NE 5.8 mph - 0.03 in Rain Heavy Rain
3:15 PM 37.9 °F 32.1 °F 37.6 °F 99% 29.64 in 2.5 mi NNE 8.1 mph - 0.01 in Rain Rain
3:35 PM 38.3 °F 35.9 °F 37.9 °F 99% 29.63 in 1.8 mi NNE 3.5 mph - 0.03 in Rain Heavy Rain
3:55 PM 38.7 °F 36.3 °F 38.3 °F 99% 29.62 in 3.0 mi North 3.5 mph - 0.06 in Rain Light Rain
4:15 PM 38.8 °F 36.5 °F 38.5 °F 99% 29.62 in 3.0 mi NNE 3.5 mph - 0.02 in Rain Light Rain
4:35 PM 38.7 °F 35.2 °F 38.3 °F 99% 29.64 in 2.5 mi North 4.6 mph - 0.04 in Rain Rain
4:55 PM 38.7 °F 34.3 °F 38.3 °F 99% 29.63 in 5.0 mi North 5.8 mph - 0.05 in Rain Light Rain
5:15 PM 38.7 °F 35.2 °F 38.1 °F 98% 29.62 in 2.5 mi NNE 4.6 mph - N/A   Drizzle
5:35 PM 38.7 °F 36.3 °F 38.3 °F 99% 29.61 in 2.5 mi North 3.5 mph - N/A   Drizzle
5:55 PM 38.7 °F - 38.3 °F 99% 29.62 in 5.0 mi Calm Calm - N/A   Drizzle
6:15 PM 38.5 °F - 37.9 °F 98% 29.62 in 5.0 mi Calm Calm - N/A   Light Drizzle
6:35 PM 38.3 °F 34.8 °F 37.9 °F 99% 29.60 in 5.0 mi NE 4.6 mph - N/A   Overcast
6:55 PM 38.3 °F 35.9 °F 37.8 °F 98% 29.62 in 10.0 mi North 3.5 mph - N/A   Overcast
7:15 PM 38.3 °F - 37.9 °F 99% 29.62 in 10.0 mi Calm Calm - N/A   Overcast
7:35 PM 38.5 °F - 38.3 °F 99% 29.63 in 10.0 mi Calm Calm - N/A   Overcast
7:55 PM 38.7 °F - 38.3 °F 99% 29.64 in 10.0 mi Calm Calm - N/A   Overcast
8:15 PM 38.7 °F - 38.3 °F 99% 29.65 in 10.0 mi Calm Calm - N/A   Overcast
8:35 PM 38.5 °F - 38.1 °F 99% 29.64 in 10.0 mi Calm Calm - N/A   Overcast
8:55 PM 38.3 °F - 37.9 °F 99% 29.64 in 10.0 mi Calm Calm - N/A   Overcast
9:15 PM 38.5 °F - 38.1 °F 99% 29.63 in 10.0 mi Calm Calm - N/A   Overcast
9:35 PM 38.3 °F - 38.3 °F 100% 29.65 in 10.0 mi Calm Calm - N/A   Overcast
9:55 PM 38.5 °F - 38.3 °F 99% 29.65 in 10.0 mi Calm Calm - N/A   Overcast
10:15 PM 38.5 °F - 38.3 °F 99% 29.64 in 7.0 mi Calm Calm - N/A   Overcast
10:35 PM 38.7 °F - 38.5 °F 99% 29.63 in 5.0 mi Calm Calm - N/A   Overcast
10:55 PM 38.8 °F - 38.7 °F 99% 29.65 in 7.0 mi Calm Calm - N/A   Overcast
11:15 PM 38.7 °F - 38.5 °F 99% 29.64 in 10.0 mi Calm Calm - N/A   Overcast
11:35 PM 38.7 °F - 38.5 °F 99% 29.64 in 10.0 mi Calm Calm - N/A   Overcast
11:55 PM 38.5 °F - 38.3 °F 99% 29.63 in 7.0 mi Calm Calm - N/A   Overcast